CLUSTER II-FM7 (SAMBA)

Last updated on Wed Oct 29 2025 00:03:35 GMT+0000 (Coordinated Universal Time)

1 26410U 00041A 25303.26178534 .00001068 00000+0 00000+0 0 9990 2 26410 146.7520 20.8235 8672833 236.4107 0.8370 0.44795833 19281
UTC large
Height (km)
Speed (km/s)
/
Latitude / Longitude
Inclination (degrees)
Orbital Period (minutes)
Azimuth
Elevation
Range (km)
Doppler Factor

Next 0 passes for location: London (51.5072 / 0.1276)

Sorry there are no passes over London.